Location: Adast
(42.9743°N, 0.0787°W)
Time: 20:40:54
(UTC+00:00)

Daily predictions for brighter satellites

Satellite Brightness Start Highest point End
(mag) Time Altitude Azimuth Time Altitude Azimuth Time Altitude Azimuth
Cosmos 1461 3.6 18:10:30 10° NW 18:14:23 53° WSW 18:18:11 10° SSE
NOSS 3-2 (A) 4.5 18:11:09 10° SSE 18:14:59 20° ESE 18:19:06 10° ENE
ISS -1.6 18:15:24 10° NW 18:17:52 19° N 18:20:21 10° NE
SJ-11-01 4.3 18:13:24 10° SSE 18:18:01 68° ENE 18:22:40 10° N
Okean 2 3.4 18:15:57 10° N 18:20:03 86° E 18:24:08 10° S
USA 276 4.0 18:17:52 10° NW 18:20:24 22° N 18:22:55 10° NE
Cosmos 2154 Rocket 4.3 18:16:43 10° SSE 18:22:45 49° E 18:28:49 10° NNE
H-2A R/B 2.4 18:18:11 10° S 18:23:13 72° WSW 18:28:26 10° NNW
ARGOS 3.1 18:23:43 10° SSE 18:29:03 80° ENE 18:34:27 10° N
Landsat 5 4.2 18:26:58 10° N 18:30:51 57° WNW 18:34:52 10° SSW
Nadezhda 3 Rocket 4.1 18:29:36 10° N 18:35:39 55° ENE 18:41:41 10° SSE
IRAS Rocket 4.3 18:30:42 10° NNE 18:36:23 90° SSE 18:41:58 10° SSW
Atlas Centaur 2 4.1 18:29:36 10° WSW 18:36:39 34° S 18:43:54 11° ESE
Geosat 4.4 18:32:48 10° NE 18:37:31 39° ESE 18:42:11 10° S
Cosmos 1943 Rocket 2.9 18:33:05 10° SW 18:38:33 56° WNW 18:44:06 10° NNE
Cosmos 1975 Rocket 3.7 18:34:47 10° N 18:38:52 35° ENE 18:42:58 10° SE
Cosmos 1346 Rocket 3.1 18:38:13 10° N 18:42:06 44° ENE 18:45:57 10° SSE
IRS-1C Rocket 4.1 18:40:48 10° SSE 18:45:57 60° ENE 18:51:08 10° N
Cosmos 1777 Rocket 3.9 18:42:34 10° SSW 18:47:48 78° ESE 18:53:02 10° NNE
SL-08 RB Rocket 3.6 18:44:53 10° SSE 18:49:21 90° E 18:53:52 10° NNW
CZ-2C R/B 3.2 18:44:15 10° N 18:49:46 67° WNW 18:55:19 10° SSW
Okean-O 2.8 18:45:56 10° SSE 18:50:13 50° ENE 18:54:31 10° N
CZ-4B R/B 1.6 18:51:33 10° NNE 18:54:30 38° E 18:57:28 10° S
USA 305 4.4 18:51:24 10° NW 18:54:54 24° NNE 18:57:20 15° ENE
SeaSat 1 3.8 18:53:20 17° E 18:55:28 22° NE 18:59:12 10° N
Cosmos 1908 Rocket 4.2 18:51:41 10° SSW 18:56:06 60° W 19:00:31 10° N
BREEZE-M R/B 3.5 18:52:55 10° W 18:56:51 39° N 18:59:39 14° ENE
Meteor 1-12 Rocket 4.3 18:51:49 10° S 18:57:46 70° E 19:03:41 10° NNE
Cosmos 2369 Rocket 2.4 18:56:41 10° SSW 19:02:21 76° WNW 19:08:00 10° NNE
Cosmos 1674 2.8 19:00:29 10° NNW 19:04:12 72° W 19:07:54 10° S
DMSP B5D1-3 4.5 19:00:12 10° NNE 19:05:20 89° W 19:10:27 10° SSW
Resurs 01 Rocket 3.8 19:06:47 10° NE 19:06:47 10° NE 19:07:03 10° NE
Cosmos 1626 1.9 19:04:11 10° N 19:07:54 76° E 19:11:35 10° SSE
Cosmos 1833 4.3 19:02:43 10° NNW 19:08:17 58° ENE 19:12:13 19° SE
Meteor 1-24 Rocket 4.4 19:04:14 10° N 19:08:59 31° ENE 19:10:53 25° ESE
SJ 16-02 1.4 19:04:52 10° SSW 19:09:17 83° WNW 19:13:45 10° NNE
YAOGAN 1 3.2 19:05:16 10° S 19:09:30 58° W 19:13:48 10° NNW
Cosmos 2366 rocket 4.5 19:04:12 10° SSE 19:09:41 35° E 19:15:10 10° NNE
CSL-04 Debris 4.1 19:04:32 10° SSE 19:09:53 68° ENE 19:15:15 10° N
USA 307 4.3 19:07:36 10° NW 19:11:15 26° NNE 19:12:58 20° ENE
Cosmos 1656 Rocket 3.6 19:06:48 10° SSW 19:12:23 90° W 19:17:55 10° NNE
Okean O Rocket 4.4 19:13:20 10° SW 19:16:35 20° W 19:19:49 10° NW
Cosmos 1680 Rocket 4.5 19:12:25 10° N 19:16:55 28° ENE 19:17:56 26° ENE
Cosmos 2341 Rocket 4.0 19:10:56 10° S 19:17:09 64° E 19:23:28 10° NNE
USA 186 2.4 19:19:06 37° NE 19:19:06 37° NE 19:21:33 10° N
Lacrosse 5 rocket 3.2 19:15:33 10° WNW 19:19:30 30° SW 19:23:19 10° S
PSLV R/B 3.9 19:16:05 10° NNE 19:20:11 59° ESE 19:24:13 10° S
SL-27 R/B 3.6 19:19:02 10° N 19:21:14 27° NE 19:21:14 27° NE
USA 306 4.0 19:19:29 10° NW 19:23:17 30° NNE 19:24:24 27° NE
Cosmos 2218 Rocket 4.2 19:17:51 10° SSE 19:23:40 47° E 19:29:34 10° NNE
Cosmos 1805 3.6 19:20:06 10° SSW 19:23:57 65° W 19:27:49 10° N
Meteor 2-10 4.3 19:20:06 10° SSE 19:25:29 48° E 19:30:44 10° NNE
NOSS 3-2 (C) 3.6 19:21:36 10° S 19:26:36 38° ESE 19:29:54 21° ENE
Gbstr 26 Del rocket 4.5 19:19:55 10° SSW 19:26:52 56° SE 19:32:34 19° ENE
MetOp-A 4.1 19:21:59 10° SSE 19:27:21 87° WSW 19:32:45 10° NNW
CZ-3 Stage 3 4.1 18:53:38 10° WSW 19:28:41 43° S 19:33:32 26° SE
CENTAUR R/B 2.4 19:23:44 10° SSW 19:29:14 55° ESE 19:35:49 10° NE
OBJECT-B 1.0 19:29:50 53° NNE 19:29:50 53° NNE 19:32:31 10° N
USA 215 3.5 19:27:16 29° E 19:30:38 58° NNE 19:37:03 10° NW
Cosmos 1184 Rocket 3.6 19:27:38 10° NNW 19:30:43 48° W 19:32:44 19° SSW
USA 308 4.0 19:27:03 10° NW 19:30:53 31° NNE 19:31:43 29° NE
SL-14 R/B 3.1 19:27:18 10° N 19:31:16 81° E 19:32:43 37° SSE
Meteor 2-20 4.3 19:26:21 10° N 19:32:27 68° E 19:36:56 19° SSE
Cosmos 1315 Rocket 3.2 19:29:38 10° SSW 19:33:35 63° WNW 19:37:36 10° N
Cosmos 990 Rocket 4.0 19:29:35 10° S 19:34:32 50° ESE 19:39:32 10° NNE
SJ-6B 2.9 19:36:04 57° ESE 19:36:30 61° ENE 19:40:32 10° N
ATLAS CENTAUR R/B 4.4 19:33:44 10° WNW 19:36:43 17° WSW 19:39:43 10° SSW
Cosmos 1733 4.2 19:35:00 10° SSW 19:38:40 48° WNW 19:42:23 10° N
Okean 2 Rocket 2.9 19:38:17 34° SSE 19:40:06 66° E 19:44:28 10° NNE
H-2A R/B 4.0 19:38:16 10° N 19:41:55 29° WNW 19:45:29 10° SW
Ariane Rocket 3.6 19:45:25 38° ENE 19:45:25 38° ENE 19:49:48 10° N
CZ-4 R/B 4.0 19:44:13 10° SW 19:46:59 19° W 19:49:46 10° NW
MOS 1 4.4 19:49:07 48° E 19:49:57 52° ENE 19:55:27 10° N
EO 1 Delta rocket 4.0 19:49:52 55° ESE 19:50:41 64° ENE 19:56:20 10° N
Cosmos 1025 Rocket 3.4 19:48:39 10° NNW 19:52:55 60° W 19:54:50 30° SSW
CSL-04 Rocket 4.2 19:48:14 10° S 19:53:29 56° W 19:58:51 10° NNW
ISS -1.8 19:52:37 10° NW 19:54:43 23° N 19:54:43 23° N
Sich 1 Rocket 4.1 19:51:16 10° SSW 19:55:45 60° W 20:00:14 10° N
Cosmos 1766 4.4 19:52:04 10° SSW 19:55:48 43° WNW 19:59:33 10° N
USA 276 4.2 19:54:15 10° NW 19:55:59 24° NNW 19:55:59 24° NNW
USA 238 DEB 3.4 19:50:45 10° SSW 19:57:12 78° ESE 20:04:00 10° NE
USA 238 3.4 19:50:53 10° SSW 19:57:18 77° ESE 20:04:06 10° NE
Cosmos 158 Rocket 4.5 19:52:53 10° NNW 19:57:44 53° WSW 20:00:03 28° SSW
Cosmos 1536 Rocket 3.8 19:53:51 10° N 19:57:30 56° NNE 19:57:30 56° NNE
IRS-1A Rocket 4.3 19:59:51 57° ESE 20:00:35 61° ENE 20:06:25 10° N
Meteor 2-20 Rocket 4.3 19:54:48 10° N 20:00:57 82° E 20:03:04 44° SSE
Meteor 1-22 Rocket 4.2 19:56:21 10° S 20:01:56 87° W 20:07:49 10° N
NOSS 3-2 (A) 3.6 19:59:28 10° SW 20:04:57 67° NW 20:11:19 10° NNE
SL-8 Rocket 4.3 20:03:18 10° SSW 20:09:31 65° W 20:15:50 10° N
Cosmos 1898 Rocket 4.4 20:12:23 36° NNE 20:12:23 36° NNE 20:15:26 10° NNE
Meteor 2-5 Rocket 4.1 20:08:48 10° NNW 20:14:17 61° W 20:16:39 34° SSW
Cosmos 2151 Rocket 3.9 20:15:00 64° WNW 20:15:00 64° WNW 20:19:22 10° N
Helios 1A Rocket 4.3 20:24:20 36° NNW 20:24:20 36° NNW 20:26:51 10° NNW
Atlas Centaur 2 4.1 20:18:38 10° WSW 20:25:31 28° SSW 20:26:28 28° S
Cosmos 2297 Rocket 3.5 20:22:36 10° N 20:26:04 27° NNE 20:26:04 27° NNE
SeaSat 1 2.9 20:33:08 57° W 20:33:08 57° W 20:37:29 10° NNW
SL-08 R/B 4.4 20:33:13 74° NNE 20:33:13 74° NNE 20:38:48 10° N
Cosmos 1727 Rocket 3.9 20:26:31 10° N 20:32:51 83° W 20:33:12 79° SSW
Resurs 01 Rocket 3.5 20:44:21 25° NNW 20:44:21 25° NNW 20:46:12 10° NNW
Cosmos 2227 Rocket 3.8 20:45:25 10° N 20:48:18 25° NNE 20:48:18 25° NNE
USA 215 4.0 21:14:38 44° WSW 21:14:38 44° WSW 21:20:01 10° WNW
NOSS 3-2 (C) 4.5 21:12:05 10° WSW 21:17:23 40° NW 21:23:29 10° NNE
CENTAUR R/B 4.0 21:14:46 10° WSW 21:20:16 34° NW 21:26:45 10° NNE
